FW4468 Weather Reports


time (UTC)temp
F
wind
direction
speed
knots
gust
knots
rain 1hr
in
rain 24hr
in
rain mn
in
humidity
%
barometer
mb
20260508033002 57 61 0.0 0.0 0.00 0.00 0.00 58 1016.0
20260508031601 58 61 0.0 1.7 0.00 0.00 0.00 57 1016.0
20260508030103 59 49 0.0 2.6 0.00 0.00 0.00 56 1016.0
20260508024601 59 58 0.0 1.7 0.00 0.00 0.00 55 1016.2
20260508023058 60 58 0.0 2.6 0.00 0.00 0.00 54 1016.3
20260508021559 60 54 0.9 2.6 0.00 0.00 0.00 55 1016.3
20260508020055 61 129 0.0 1.7 0.00 0.00 0.00 53 1016.4
20260508014553 62 129 0.0 1.7 0.00 0.00 0.00 52 1016.5
20260508013103 62 154 0.0 1.7 0.00 0.00 0.00 53 1016.5
20260508011551 62 161 0.0 4.3 0.00 0.00 0.00 51 1016.6
20260508010049 63 161 0.0 2.6 0.00 0.00 0.00 50 1016.7
20260508004547 64 265 0.0 2.6 0.00 0.00 0.00 49 1016.9
20260508003047 64 346 0.0 2.6 0.00 0.00 0.00 49 1017.0
20260508001548 64 263 1.7 6.1 0.00 0.00 0.00 49 1017.0
20260508000045 64 250 1.7 7.0 0.00 0.00 0.00 48 1017.1
20260507234544 65 249 1.7 3.5 0.00 0.00 0.00 47 1017.1
20260507233041 66 258 1.7 3.5 0.00 0.00 0.00 45 1017.2
20260507231541 66 259 0.9 5.2 0.00 0.00 0.00 46 1017.3
20260507230035 65 216 0.9 4.3 0.00 0.00 0.00 48 1017.4
20260507224534 63 219 0.0 2.6 0.00 0.00 0.00 52 1017.7
20260507223030 62 134 0.9 4.3 0.00 0.00 0.00 52 1017.8
20260507221528 62 148 0.9 3.5 0.00 0.00 0.00 52 1017.9
20260507220025 62 173 1.7 4.3 0.00 0.00 0.00 53 1018.1
20260507214524 62 47 0.9 4.3 0.00 0.00 0.00 54 1018.1
20260507213022 61 192 0.9 2.6 0.00 0.00 0.00 54 1018.3
20260507211520 61 350 0.0 3.5 0.00 0.00 0.00 56 1018.5
20260507210019 60 59 0.9 2.6 0.00 0.00 0.00 58 1018.6
20260507204514 59 355 0.9 2.6 0.00 0.00 0.00 58 1018.7
20260507203013 59 144 0.0 2.6 0.00 0.00 0.00 57 1018.9
20260507201511 59 184 0.0 1.7 0.00 0.00 0.00 58 1019.0
20260507200008 59 139 0.9 2.6 0.00 0.00 0.00 59 1019.2
20260507194508 59 145 0.0 2.6 0.00 0.00 0.00 61 1019.4
20260507193008 58 167 0.0 1.7 0.00 0.00 0.00 59 1019.3
20260507191506 58 114 0.0 3.5 0.00 0.00 0.00 60 1019.4
20260507190006 58 244 0.0 2.6 0.00 0.00 0.00 60 1019.2
20260507184502 58 267 0.9 5.2 0.00 0.00 0.00 61 1019.3
20260507183105 57 174 0.9 5.2 0.00 0.00 0.00 62 1019.3
20260507181556 55 51 0.0 3.5 0.00 0.00 0.00 63 1019.8
20260507180056 55 315 0.0 1.7 0.00 0.00 0.00 63 1019.8
20260507174556 55 344 0.0 3.5 0.00 0.00 0.00 63 1019.9
20260507173057 55 57 0.9 2.6 0.00 0.00 0.00 63 1019.9
20260507171553 55 242 0.9 2.6 0.00 0.00 0.00 64 1019.8
20260507170052 55 23 0.9 2.6 0.00 0.00 0.00 64 1019.8
20260507164605 54 153 0.0 2.6 0.00 0.00 0.00 64 1019.8
20260507163048 54 136 1.7 3.5 0.00 0.00 0.00 64 1019.8
20260507161548 54 153 0.0 1.7 0.00 0.00 0.00 65 1019.8
20260507160048 54 146 0.0 2.6 0.00 0.00 0.00 64 1019.8
20260507154542 53 123 0.0 2.6 0.00 0.00 0.00 66 1020.0
20260507153041 52 65 0.0 1.7 0.00 0.00 0.00 66 1020.0
20260507151540 52 173 0.0 0.9 0.00 0.00 0.00 66 1020.0
20260507150039 52 173 0.0 0.9 0.00 0.00 0.00 67 1020.0
20260507144538 52 173 0.0 2.6 0.00 0.00 0.00 67 1019.9
20260507143056 51 169 0.0 1.7 0.00 0.00 0.00 68 1019.9
20260507141554 51 169 0.0 1.7 0.00 0.00 0.00 68 1020.0
20260507140037 51 169 0.0 0.9 0.00 0.00 0.00 69 1020.0
20260507134539 51 169 0.0 0.9 0.00 0.00 0.00 69 1020.0
20260507133040 51 138 0.0 0.9 0.00 0.00 0.00 69 1019.8
20260507131541 50 138 0.0 0.0 0.00 0.00 0.00 68 1019.8
20260507130040 50 138 0.0 0.9 0.00 0.00 0.00 69 1019.9
20260507124536 50 78 0.0 1.7 0.00 0.00 0.00 69 1019.9
20260507123034 50 114 0.0 0.9 0.00 0.00 0.00 68 1019.9
20260507121532 50 109 0.0 0.9 0.00 0.00 0.00 68 1020.1
20260507120032 51 105 0.0 1.7 0.00 0.00 0.00 68 1020.0
20260507114531 51 144 0.0 2.6 0.00 0.00 0.00 69 1020.1
20260507113030 51 134 0.0 0.9 0.00 0.00 0.00 69 1020.3
20260507111529 51 130 0.0 0.9 0.00 0.00 0.00 68 1020.3
20260507110028 51 130 0.0 1.7 0.00 0.00 0.00 68 1020.3
20260507104527 51 131 0.0 2.6 0.00 0.00 0.00 68 1020.3
20260507103027 51 132 0.0 1.7 0.00 0.00 0.00 68 1020.3
20260507101525 51 122 0.0 0.0 0.00 0.00 0.00 69 1020.4
20260507100032 52 121 0.0 0.0 0.00 0.00 0.00 69 1020.3
20260507094523 52 123 0.0 0.9 0.00 0.00 0.00 68 1020.3
20260507093023 52 122 0.0 0.9 0.00 0.00 0.00 68 1020.3
20260507091523 52 120 0.0 0.9 0.00 0.00 0.00 68 1020.3
20260507090020 52 120 0.0 0.9 0.00 0.00 0.00 68 1020.4
20260507084519 52 136 0.9 3.5 0.00 0.00 0.00 68 1020.3
20260507083018 52 136 0.0 1.7 0.00 0.00 0.00 68 1020.3
20260507081517 52 137 0.0 1.7 0.00 0.00 0.00 68 1020.3
20260507080016 52 159 0.0 2.6 0.00 0.00 0.00 69 1020.1
20260507074515 52 121 0.0 1.7 0.00 0.00 0.00 69 1019.9
20260507073013 52 163 0.0 1.7 0.00 0.00 0.00 69 1019.8
20260507071523 52 169 0.0 0.9 0.00 0.00 0.00 69 1019.8
20260507070012 52 169 0.0 0.9 0.00 0.00 0.00 69 1019.7
20260507064509 53 169 0.0 1.7 0.00 0.00 0.00 68 1019.7
20260507063009 53 174 0.0 2.6 0.00 0.00 0.00 68 1019.8
20260507061508 53 82 0.0 2.6 0.00 0.00 0.00 68 1019.7
20260507060008 54 161 0.0 2.6 0.00 0.00 0.00 67 1019.7
20260507054509 54 163 0.0 2.6 0.00 0.00 0.00 68 1019.8
20260507053008 54 142 0.0 0.9 0.00 0.00 0.00 68 1019.7
20260507051506 54 142 0.0 0.9 0.00 0.00 0.00 68 1019.8
20260507050013 54 134 0.0 2.6 0.00 0.00 0.00 67 1019.8
20260507044505 54 126 0.9 1.7 0.00 0.00 0.00 68 1019.9
20260507043004 54 62 0.0 0.9 0.00 0.00 0.00 68 1019.9
20260507041510 54 62 0.0 0.9 0.00 0.00 0.00 68 1019.8
20260507040002 54 56 0.0 0.0 0.00 0.00 0.00 68 1019.7
20260507034501 54 55 0.0 0.9 0.00 0.00 0.00 68 1019.6